Year,Month,Day,Hour,Minute,Value (Times are PST for windgust in km/hr)
2021,01,05,00,17,1.60
2021,01,05,00,50,3.20
2021,01,05,01,01,1.60
2021,01,05,02,20,1.60
2021,01,05,02,26,1.60
2021,01,05,02,27,3.20
2021,01,05,02,30,1.60
2021,01,05,02,44,6.40
2021,01,05,02,45,11.30
2021,01,05,02,46,17.70
2021,01,05,02,47,19.30
2021,01,05,02,48,19.30
2021,01,05,02,49,20.90
2021,01,05,02,50,17.70
2021,01,05,02,51,17.70
2021,01,05,02,52,20.90
2021,01,05,02,53,20.90
2021,01,05,02,54,20.90
2021,01,05,02,55,22.50
2021,01,05,02,56,22.50
2021,01,05,02,57,22.50
2021,01,05,02,58,22.50
2021,01,05,02,59,20.90
2021,01,05,03,00,22.50
2021,01,05,03,01,22.50
2021,01,05,03,02,22.50
2021,01,05,03,03,20.90
2021,01,05,03,04,22.50
2021,01,05,03,05,22.50
2021,01,05,03,06,27.40
2021,01,05,03,07,24.20
2021,01,05,03,08,24.20
2021,01,05,03,09,25.70
2021,01,05,03,10,24.20
2021,01,05,03,11,24.20
2021,01,05,03,12,22.50
2021,01,05,03,13,19.30
2021,01,05,03,14,19.30
2021,01,05,03,15,19.30
2021,01,05,03,16,19.30
2021,01,05,03,17,22.50
2021,01,05,03,18,24.20
2021,01,05,03,19,24.20
2021,01,05,03,20,24.20
2021,01,05,03,21,25.70
2021,01,05,03,22,20.90
2021,01,05,03,23,17.70
2021,01,05,03,24,22.50
2021,01,05,03,25,24.20
2021,01,05,03,26,25.70
2021,01,05,03,27,22.50
2021,01,05,03,28,22.50
2021,01,05,03,29,19.30
2021,01,05,03,30,19.30
2021,01,05,03,31,17.70
2021,01,05,03,32,22.50
2021,01,05,03,33,20.90
2021,01,05,03,34,20.90
2021,01,05,03,35,20.90
2021,01,05,03,36,20.90
2021,01,05,03,37,20.90
2021,01,05,03,38,17.70
2021,01,05,03,39,17.70
2021,01,05,03,40,19.30
2021,01,05,03,41,19.30
2021,01,05,03,42,20.90
2021,01,05,03,43,20.90
2021,01,05,03,44,22.50
2021,01,05,03,45,16.10
2021,01,05,03,46,14.50
2021,01,05,03,47,12.90
2021,01,05,03,48,14.50
2021,01,05,03,49,14.50
2021,01,05,03,50,12.90
2021,01,05,03,51,14.50
2021,01,05,03,52,14.50
2021,01,05,03,53,16.10
2021,01,05,03,54,16.10
2021,01,05,03,55,14.50
2021,01,05,03,56,16.10
2021,01,05,03,57,19.30
2021,01,05,03,58,17.70
2021,01,05,03,59,19.30
2021,01,05,04,00,19.30
2021,01,05,04,01,17.70
2021,01,05,04,02,16.10
2021,01,05,04,03,16.10
2021,01,05,04,04,17.70
2021,01,05,04,05,17.70
2021,01,05,04,06,19.30
2021,01,05,04,07,17.70
2021,01,05,04,08,20.90
2021,01,05,04,09,22.50
2021,01,05,04,10,19.30
2021,01,05,04,11,19.30
2021,01,05,04,12,20.90
2021,01,05,04,13,20.90
2021,01,05,04,14,19.30
2021,01,05,04,15,20.90
2021,01,05,04,16,20.90
2021,01,05,04,17,20.90
2021,01,05,04,18,20.90
2021,01,05,04,19,19.30
2021,01,05,04,20,20.90
2021,01,05,04,21,19.30
2021,01,05,04,22,19.30
2021,01,05,04,23,22.50
2021,01,05,04,24,20.90
2021,01,05,04,25,25.70
2021,01,05,04,26,29.00
2021,01,05,04,27,27.40
2021,01,05,04,28,20.90
2021,01,05,04,29,19.30
2021,01,05,04,30,19.30
2021,01,05,04,31,24.20
2021,01,05,04,32,24.20
2021,01,05,04,33,19.30
2021,01,05,04,34,17.70
2021,01,05,04,35,22.50
2021,01,05,04,36,22.50
2021,01,05,04,37,19.30
2021,01,05,04,38,22.50
2021,01,05,04,39,22.50
2021,01,05,04,40,24.20
2021,01,05,04,41,22.50
2021,01,05,04,42,24.20
2021,01,05,04,43,24.20
2021,01,05,04,44,25.70
2021,01,05,04,45,25.70
2021,01,05,04,46,22.50
2021,01,05,04,47,22.50
2021,01,05,04,48,24.20
2021,01,05,04,49,24.20
2021,01,05,04,50,20.90
2021,01,05,04,51,19.30
2021,01,05,04,52,12.90
2021,01,05,04,53,14.50
2021,01,05,04,54,14.50
2021,01,05,04,55,14.50
2021,01,05,04,56,14.50
2021,01,05,04,57,17.70
2021,01,05,04,58,17.70
2021,01,05,04,59,17.70
2021,01,05,05,00,17.70
2021,01,05,05,01,22.50
2021,01,05,05,02,20.90
2021,01,05,05,03,20.90
2021,01,05,05,04,22.50
2021,01,05,05,05,19.30
2021,01,05,05,06,20.90
2021,01,05,05,07,24.20
2021,01,05,05,08,19.30
2021,01,05,05,09,19.30
2021,01,05,05,10,17.70
2021,01,05,05,11,19.30
2021,01,05,05,12,17.70
2021,01,05,05,13,22.50
2021,01,05,05,14,20.90
2021,01,05,05,15,19.30
2021,01,05,05,16,22.50
2021,01,05,05,17,22.50
2021,01,05,05,18,20.90
2021,01,05,05,19,20.90
2021,01,05,05,20,16.10
2021,01,05,05,21,24.20
2021,01,05,05,22,20.90
2021,01,05,05,23,22.50
2021,01,05,05,24,19.30
2021,01,05,05,25,19.30
2021,01,05,05,26,17.70
2021,01,05,05,27,17.70
2021,01,05,05,28,19.30
2021,01,05,05,29,16.10
2021,01,05,05,30,17.70
2021,01,05,05,31,19.30
2021,01,05,05,32,17.70
2021,01,05,05,33,20.90
2021,01,05,05,34,17.70
2021,01,05,05,35,17.70
2021,01,05,05,36,17.70
2021,01,05,05,37,22.50
2021,01,05,05,38,19.30
2021,01,05,05,39,17.70
2021,01,05,05,40,22.50
2021,01,05,05,41,22.50
2021,01,05,05,42,25.70
2021,01,05,05,43,22.50
2021,01,05,05,44,24.20
2021,01,05,05,45,22.50
2021,01,05,05,46,22.50
2021,01,05,05,47,20.90
2021,01,05,05,48,19.30
2021,01,05,05,49,22.50
2021,01,05,05,50,20.90
2021,01,05,05,51,20.90
2021,01,05,05,52,20.90
2021,01,05,05,53,22.50
2021,01,05,05,54,24.20
2021,01,05,05,55,25.70
2021,01,05,05,56,24.20
2021,01,05,05,57,27.40
2021,01,05,05,58,29.00
2021,01,05,05,59,29.00
2021,01,05,06,00,29.00
2021,01,05,06,01,29.00
2021,01,05,06,02,27.40
2021,01,05,06,03,27.40
2021,01,05,06,04,24.20
2021,01,05,06,05,24.20
2021,01,05,06,06,22.50
2021,01,05,06,07,27.40
2021,01,05,06,08,27.40
2021,01,05,06,09,27.40
2021,01,05,06,10,25.70
2021,01,05,06,11,24.20
2021,01,05,06,12,25.70
2021,01,05,06,13,24.20
2021,01,05,06,14,25.70
2021,01,05,06,15,24.20
2021,01,05,06,16,29.00
2021,01,05,06,17,24.20
2021,01,05,06,18,22.50
2021,01,05,06,19,24.20
2021,01,05,06,20,27.40
2021,01,05,06,21,29.00
2021,01,05,06,22,24.20
2021,01,05,06,23,27.40
2021,01,05,06,24,25.70
2021,01,05,06,25,22.50
2021,01,05,06,26,22.50
2021,01,05,06,27,22.50
2021,01,05,06,28,27.40
2021,01,05,06,29,24.20
2021,01,05,06,30,25.70
2021,01,05,06,31,25.70
2021,01,05,06,32,24.20
2021,01,05,06,33,25.70
2021,01,05,06,34,24.20
2021,01,05,06,35,24.20
2021,01,05,06,36,24.20
2021,01,05,06,37,24.20
2021,01,05,06,38,22.50
2021,01,05,06,39,22.50
2021,01,05,06,40,20.90
2021,01,05,06,41,20.90
2021,01,05,06,42,19.30
2021,01,05,06,43,16.10
2021,01,05,06,44,16.10
2021,01,05,06,45,19.30
2021,01,05,06,46,19.30
2021,01,05,06,47,19.30
2021,01,05,06,48,24.20
2021,01,05,06,49,20.90
2021,01,05,06,50,29.00
2021,01,05,06,51,27.40
2021,01,05,06,52,24.20
2021,01,05,06,53,20.90
2021,01,05,06,54,22.50
2021,01,05,06,55,24.20
2021,01,05,06,56,22.50
2021,01,05,06,57,24.20
2021,01,05,06,58,25.70
2021,01,05,06,59,24.20
2021,01,05,07,00,24.20
2021,01,05,07,01,24.20
2021,01,05,07,02,24.20
2021,01,05,07,03,22.50
2021,01,05,07,04,22.50
2021,01,05,07,05,20.90
2021,01,05,07,06,24.20
2021,01,05,07,07,22.50
2021,01,05,07,08,19.30
2021,01,05,07,09,20.90
2021,01,05,07,10,20.90
2021,01,05,07,11,19.30
2021,01,05,07,12,20.90
2021,01,05,07,13,19.30
2021,01,05,07,14,17.70
2021,01,05,07,15,17.70
2021,01,05,07,16,16.10
2021,01,05,07,17,16.10
2021,01,05,07,18,17.70
2021,01,05,07,19,16.10
2021,01,05,07,20,16.10
2021,01,05,07,21,14.50
2021,01,05,07,22,14.50
2021,01,05,07,23,14.50
2021,01,05,07,24,12.90
2021,01,05,07,25,6.40
2021,01,05,07,26,12.90
2021,01,05,07,27,12.90
2021,01,05,07,28,11.30
2021,01,05,07,29,8.10
2021,01,05,07,30,12.90
2021,01,05,07,31,11.30
2021,01,05,07,32,16.10
2021,01,05,07,33,11.30
2021,01,05,07,34,14.50
2021,01,05,07,35,11.30
2021,01,05,07,36,11.30
2021,01,05,07,37,12.90
2021,01,05,07,38,11.30
2021,01,05,07,39,8.10
2021,01,05,07,40,8.10
2021,01,05,07,41,11.30
2021,01,05,07,42,12.90
2021,01,05,07,43,12.90
2021,01,05,07,44,8.10
2021,01,05,07,45,6.40
2021,01,05,07,46,8.10
2021,01,05,07,47,11.30
2021,01,05,07,48,11.30
2021,01,05,07,49,11.30
2021,01,05,07,50,11.30
2021,01,05,07,51,12.90
2021,01,05,07,52,11.30
2021,01,05,07,53,14.50
2021,01,05,07,54,12.90
2021,01,05,07,55,12.90
2021,01,05,07,56,12.90
2021,01,05,07,57,12.90
2021,01,05,07,58,12.90
2021,01,05,07,59,12.90
2021,01,05,08,00,14.50
2021,01,05,08,01,12.90
2021,01,05,08,02,12.90
2021,01,05,08,03,12.90
2021,01,05,08,04,12.90
2021,01,05,08,05,8.10
2021,01,05,08,06,11.30
2021,01,05,08,07,12.90
2021,01,05,08,08,11.30
2021,01,05,08,09,11.30
2021,01,05,08,10,8.10
2021,01,05,08,11,8.10
2021,01,05,08,12,8.10
2021,01,05,08,13,11.30
2021,01,05,08,14,8.10
2021,01,05,08,15,6.40
2021,01,05,08,16,4.80
2021,01,05,08,17,4.80
2021,01,05,08,18,4.80
2021,01,05,08,19,4.80
2021,01,05,08,35,3.20
2021,01,05,08,36,6.40
2021,01,05,08,37,6.40
2021,01,05,08,38,6.40
2021,01,05,08,39,6.40
2021,01,05,08,40,6.40
2021,01,05,08,41,6.40
2021,01,05,08,42,6.40
2021,01,05,08,43,4.80
2021,01,05,08,44,4.80
2021,01,05,08,45,4.80
2021,01,05,08,46,4.80
2021,01,05,08,47,3.20
2021,01,05,08,48,3.20
2021,01,05,08,49,1.60
2021,01,05,08,50,1.60
2021,01,05,08,51,1.60
2021,01,05,08,52,3.20
2021,01,05,08,53,4.80
2021,01,05,08,54,4.80
2021,01,05,08,55,6.40
2021,01,05,08,56,6.40
2021,01,05,08,57,6.40
2021,01,05,08,58,8.10
2021,01,05,08,59,8.10
2021,01,05,09,00,11.30
2021,01,05,09,01,11.30
2021,01,05,09,02,12.90
2021,01,05,09,03,9.60
2021,01,05,09,04,12.90
2021,01,05,09,05,11.30
2021,01,05,09,06,9.60
2021,01,05,09,07,11.30
2021,01,05,09,08,11.30
2021,01,05,09,09,8.10
2021,01,05,09,10,8.10
2021,01,05,09,11,6.40
2021,01,05,09,12,8.10
2021,01,05,09,13,11.30
2021,01,05,09,14,6.40
2021,01,05,09,15,8.10
2021,01,05,09,16,16.10
2021,01,05,09,17,14.50
2021,01,05,09,18,11.30
2021,01,05,09,19,14.50
2021,01,05,09,20,17.70
2021,01,05,09,21,19.30
2021,01,05,09,22,19.30
2021,01,05,09,23,19.30
2021,01,05,09,24,20.90
2021,01,05,09,25,17.70
2021,01,05,09,26,17.70
2021,01,05,09,27,19.30
2021,01,05,09,28,16.10
2021,01,05,09,29,17.70
2021,01,05,09,30,16.10
2021,01,05,09,31,12.90
2021,01,05,09,32,17.70
2021,01,05,09,33,17.70
2021,01,05,09,34,17.70
2021,01,05,09,35,16.10
2021,01,05,09,36,17.70
2021,01,05,09,37,19.30
2021,01,05,09,38,19.30
2021,01,05,09,39,19.30
2021,01,05,09,40,17.70
2021,01,05,09,41,20.90
2021,01,05,09,42,12.90
2021,01,05,09,43,17.70
2021,01,05,09,44,19.30
2021,01,05,09,45,19.30
2021,01,05,09,46,19.30
2021,01,05,09,47,25.70
2021,01,05,09,48,25.70
2021,01,05,09,49,20.90
2021,01,05,09,50,24.20
2021,01,05,09,51,24.20
2021,01,05,09,52,22.50
2021,01,05,09,53,24.20
2021,01,05,09,54,25.70
2021,01,05,09,55,25.70
2021,01,05,09,56,29.00
2021,01,05,09,57,24.20
2021,01,05,09,58,22.50
2021,01,05,09,59,20.90
2021,01,05,10,00,22.50
2021,01,05,10,01,22.50
2021,01,05,10,02,27.40
2021,01,05,10,03,29.00
2021,01,05,10,04,29.00
2021,01,05,10,05,29.00
2021,01,05,10,06,29.00
2021,01,05,10,07,27.40
2021,01,05,10,08,24.20
2021,01,05,10,09,30.60
2021,01,05,10,10,32.20
2021,01,05,10,11,32.20
2021,01,05,10,12,30.60
2021,01,05,10,13,30.60
2021,01,05,10,14,29.00
2021,01,05,10,15,30.60
2021,01,05,10,16,30.60
2021,01,05,10,17,33.80
2021,01,05,10,18,33.80
2021,01,05,10,19,37.00
2021,01,05,10,20,37.00
2021,01,05,10,21,32.20
2021,01,05,10,22,35.40
2021,01,05,10,23,40.20
2021,01,05,10,24,37.00
2021,01,05,10,25,38.60
2021,01,05,10,26,38.60
2021,01,05,10,27,37.00
2021,01,05,10,28,33.80
2021,01,05,10,29,38.60
2021,01,05,10,30,43.50
2021,01,05,10,31,35.40
2021,01,05,10,32,38.60
2021,01,05,10,33,40.20
2021,01,05,10,34,35.40
2021,01,05,10,35,37.00
2021,01,05,10,36,33.80
2021,01,05,10,37,33.80
2021,01,05,10,38,41.80
2021,01,05,10,39,37.00
2021,01,05,10,40,35.40
2021,01,05,10,41,35.40
2021,01,05,10,42,37.00
2021,01,05,10,43,33.80
2021,01,05,10,44,35.40
2021,01,05,10,45,45.10
2021,01,05,10,46,38.60
2021,01,05,10,47,41.80
2021,01,05,10,48,40.20
2021,01,05,10,49,38.60
2021,01,05,10,50,48.30
2021,01,05,10,51,40.20
2021,01,05,10,52,45.10
2021,01,05,10,53,46.70
2021,01,05,10,54,40.20
2021,01,05,10,55,45.10
2021,01,05,10,56,43.50
2021,01,05,10,57,43.50
2021,01,05,10,58,41.80
2021,01,05,10,59,35.40
2021,01,05,11,00,37.00
2021,01,05,11,01,38.60
2021,01,05,11,02,51.50
2021,01,05,11,03,41.80
2021,01,05,11,04,37.00
2021,01,05,11,05,38.60
2021,01,05,11,06,41.80
2021,01,05,11,07,33.80
2021,01,05,11,08,48.30
2021,01,05,11,09,45.10
2021,01,05,11,10,41.80
2021,01,05,11,11,53.10
2021,01,05,11,12,45.10
2021,01,05,11,13,43.50
2021,01,05,11,14,49.90
2021,01,05,11,15,46.70
2021,01,05,11,16,46.70
2021,01,05,11,17,54.70
2021,01,05,11,18,54.70
2021,01,05,11,19,53.10
2021,01,05,11,20,51.50
2021,01,05,11,21,56.30
2021,01,05,11,22,48.30
2021,01,05,11,23,49.90
2021,01,05,11,24,53.10
2021,01,05,11,25,49.90
2021,01,05,11,26,49.90
2021,01,05,11,27,48.30
2021,01,05,11,28,41.80
2021,01,05,11,29,53.10
2021,01,05,11,30,53.10
2021,01,05,11,31,53.10
2021,01,05,11,32,43.50
2021,01,05,11,33,43.50
2021,01,05,11,34,45.10
2021,01,05,11,35,43.50
2021,01,05,11,36,53.10
2021,01,05,11,37,53.10
2021,01,05,11,38,51.50
2021,01,05,11,39,46.70
2021,01,05,11,40,57.90
2021,01,05,11,41,54.70
2021,01,05,11,42,48.30
2021,01,05,11,43,46.70
2021,01,05,11,44,46.70
2021,01,05,11,45,53.10
2021,01,05,11,46,48.30
2021,01,05,11,47,49.90
2021,01,05,11,48,57.90
2021,01,05,11,49,54.70
2021,01,05,11,50,56.30
2021,01,05,11,51,59.50
2021,01,05,11,52,61.20
2021,01,05,11,53,61.20
2021,01,05,11,54,64.40
2021,01,05,11,55,62.70
2021,01,05,11,56,59.50
2021,01,05,11,57,53.10
2021,01,05,11,58,49.90
2021,01,05,11,59,64.40
2021,01,05,12,00,54.70
2021,01,05,12,01,54.70
2021,01,05,12,02,54.70
2021,01,05,12,03,59.50
2021,01,05,12,04,61.20
2021,01,05,12,05,59.50
2021,01,05,12,06,61.20
2021,01,05,12,07,59.50
2021,01,05,12,08,66.00
2021,01,05,12,09,61.20
2021,01,05,12,10,56.30
2021,01,05,12,11,62.70
2021,01,05,12,12,59.50
2021,01,05,12,13,56.30
2021,01,05,12,14,51.50
2021,01,05,12,15,54.70
2021,01,05,12,16,57.90
2021,01,05,12,17,62.70
2021,01,05,12,18,66.00
2021,01,05,12,19,62.70
2021,01,05,12,20,62.70
2021,01,05,12,21,56.30
2021,01,05,12,22,61.20
2021,01,05,12,23,61.20
2021,01,05,12,24,54.70
2021,01,05,12,25,53.10
2021,01,05,12,26,61.20
2021,01,05,12,27,59.50
2021,01,05,12,28,61.20
2021,01,05,12,29,54.70
2021,01,05,12,30,54.70
2021,01,05,12,31,61.20
2021,01,05,12,32,56.30
2021,01,05,12,33,62.70
2021,01,05,12,34,54.70
2021,01,05,12,35,59.50
2021,01,05,12,36,59.50
2021,01,05,12,37,62.70
2021,01,05,12,38,54.70
2021,01,05,12,39,66.00
2021,01,05,12,40,61.20
2021,01,05,12,41,59.50
2021,01,05,12,42,56.30
2021,01,05,12,43,53.10
2021,01,05,12,44,53.10
2021,01,05,12,45,54.70
2021,01,05,12,46,57.90
2021,01,05,12,47,57.90
2021,01,05,12,48,62.70
2021,01,05,12,49,57.90
2021,01,05,12,50,54.70
2021,01,05,12,51,53.10
2021,01,05,12,52,67.60
2021,01,05,12,53,59.50
2021,01,05,12,54,57.90
2021,01,05,12,55,53.10
2021,01,05,12,56,62.70
2021,01,05,12,57,59.50
2021,01,05,12,58,66.00
2021,01,05,12,59,64.40
2021,01,05,13,00,62.70
2021,01,05,13,01,61.20
2021,01,05,13,02,54.70
2021,01,05,13,03,54.70
2021,01,05,13,04,61.20
2021,01,05,13,05,54.70
2021,01,05,13,06,54.70
2021,01,05,13,07,62.70
2021,01,05,13,08,62.70
2021,01,05,13,09,56.30
2021,01,05,13,10,64.40
2021,01,05,13,11,62.70
2021,01,05,13,12,56.30
2021,01,05,13,13,57.90
2021,01,05,13,14,67.60
2021,01,05,13,15,66.00
2021,01,05,13,16,66.00
2021,01,05,13,17,64.40
2021,01,05,13,18,66.00
2021,01,05,13,19,74.00
2021,01,05,13,20,69.20
2021,01,05,13,21,61.20
2021,01,05,13,22,61.20
2021,01,05,13,23,57.90
2021,01,05,13,24,66.00
2021,01,05,13,25,64.40
2021,01,05,13,26,61.20
2021,01,05,13,27,64.40
2021,01,05,13,28,59.50
2021,01,05,13,29,59.50
2021,01,05,13,30,66.00
2021,01,05,13,31,69.20
2021,01,05,13,32,66.00
2021,01,05,13,33,61.20
2021,01,05,13,34,54.70
2021,01,05,13,35,61.20
2021,01,05,13,36,64.40
2021,01,05,13,37,69.20
2021,01,05,13,38,62.70
2021,01,05,13,39,61.20
2021,01,05,13,40,67.60
2021,01,05,13,41,64.40
2021,01,05,13,42,69.20
2021,01,05,13,43,67.60
2021,01,05,13,44,67.60
2021,01,05,13,45,82.10
2021,01,05,13,46,77.30
2021,01,05,13,47,62.70
2021,01,05,13,48,64.40
2021,01,05,13,49,67.60
2021,01,05,13,50,69.20
2021,01,05,13,51,70.80
2021,01,05,13,52,69.20
2021,01,05,13,53,64.40
2021,01,05,13,54,67.60
2021,01,05,13,55,56.30
2021,01,05,13,56,64.40
2021,01,05,13,57,59.50
2021,01,05,13,58,64.40
2021,01,05,13,59,62.70
2021,01,05,14,00,62.70
2021,01,05,14,01,66.00
2021,01,05,14,02,67.60
2021,01,05,14,03,72.40
2021,01,05,14,04,69.20
2021,01,05,14,05,74.00
2021,01,05,14,06,72.40
2021,01,05,14,07,62.70
2021,01,05,14,08,59.50
2021,01,05,14,09,70.80
2021,01,05,14,10,62.70
2021,01,05,14,11,64.40
2021,01,05,14,12,61.20
2021,01,05,14,13,74.00
2021,01,05,14,14,77.30
2021,01,05,14,15,72.40
2021,01,05,14,16,72.40
2021,01,05,14,17,69.20
2021,01,05,14,18,69.20
2021,01,05,14,19,70.80
2021,01,05,14,20,75.60
2021,01,05,14,21,72.40
2021,01,05,14,22,70.80
2021,01,05,14,23,64.40
2021,01,05,14,24,62.70
2021,01,05,14,25,83.70
2021,01,05,14,26,80.50
2021,01,05,14,27,70.80
2021,01,05,14,28,77.30
2021,01,05,14,29,66.00
2021,01,05,14,30,72.40
2021,01,05,14,31,67.60
2021,01,05,14,32,74.00
2021,01,05,14,33,69.20
2021,01,05,14,34,74.00
2021,01,05,14,35,78.80
2021,01,05,14,36,78.80
2021,01,05,14,37,86.90
2021,01,05,14,38,69.20
2021,01,05,14,39,82.10
2021,01,05,14,40,70.80
2021,01,05,14,41,90.10
2021,01,05,14,42,82.10
2021,01,05,14,43,75.60
2021,01,05,14,44,82.10
2021,01,05,14,45,78.80
2021,01,05,14,46,75.60
2021,01,05,14,47,69.20
2021,01,05,14,48,86.90
2021,01,05,14,49,72.40
2021,01,05,14,50,77.30
2021,01,05,14,51,77.30
2021,01,05,14,52,75.60
2021,01,05,14,53,72.40
2021,01,05,14,54,77.30
2021,01,05,14,55,69.20
2021,01,05,14,56,72.40
2021,01,05,14,57,75.60
2021,01,05,14,58,69.20
2021,01,05,14,59,70.80
2021,01,05,15,00,69.20
2021,01,05,15,01,74.00
2021,01,05,15,02,80.50
2021,01,05,15,03,72.40
2021,01,05,15,04,80.50
2021,01,05,15,05,69.20
2021,01,05,15,06,78.80
2021,01,05,15,07,80.50
2021,01,05,15,08,72.40
2021,01,05,15,09,66.00
2021,01,05,15,10,80.50
2021,01,05,15,11,74.00
2021,01,05,15,12,70.80
2021,01,05,15,13,69.20
2021,01,05,15,14,82.10
2021,01,05,15,15,85.30
2021,01,05,15,16,77.30
2021,01,05,15,17,77.30
2021,01,05,15,18,77.30
2021,01,05,15,19,77.30
2021,01,05,15,20,78.80
2021,01,05,15,21,78.80
2021,01,05,15,22,70.80
2021,01,05,15,23,70.80
2021,01,05,15,24,80.50
2021,01,05,15,25,78.80
2021,01,05,15,26,66.00
2021,01,05,15,27,75.60
2021,01,05,15,28,74.00
2021,01,05,15,29,80.50
2021,01,05,15,30,70.80
2021,01,05,15,31,80.50
2021,01,05,15,32,72.40
2021,01,05,15,33,66.00
2021,01,05,15,34,75.60
2021,01,05,15,35,80.50
2021,01,05,15,36,70.80
2021,01,05,15,37,75.60
2021,01,05,15,38,75.60
2021,01,05,15,39,69.20
2021,01,05,15,40,72.40
2021,01,05,15,41,66.00
2021,01,05,15,42,83.70
2021,01,05,15,43,88.50
2021,01,05,15,44,74.00
2021,01,05,15,45,66.00
2021,01,05,15,46,72.40
2021,01,05,15,47,59.50
2021,01,05,15,48,61.20
2021,01,05,15,49,67.60
2021,01,05,15,50,72.40
2021,01,05,15,51,70.80
2021,01,05,15,52,62.70
2021,01,05,15,53,78.80
2021,01,05,15,54,67.60
2021,01,05,15,55,75.60
2021,01,05,15,56,67.60
2021,01,05,15,57,72.40
2021,01,05,15,58,67.60
2021,01,05,15,59,53.10
2021,01,05,16,00,62.70
2021,01,05,16,01,75.60
2021,01,05,16,02,77.30
2021,01,05,16,03,64.40
2021,01,05,16,04,67.60
2021,01,05,16,05,75.60
2021,01,05,16,06,74.00
2021,01,05,16,07,64.40
2021,01,05,16,08,61.20
2021,01,05,16,09,62.70
2021,01,05,16,10,74.00
2021,01,05,16,11,74.00
2021,01,05,16,12,66.00
2021,01,05,16,13,59.50
2021,01,05,16,14,56.30
2021,01,05,16,15,64.40
2021,01,05,16,16,57.90
2021,01,05,16,17,57.90
2021,01,05,16,18,66.00
2021,01,05,16,19,62.70
2021,01,05,16,20,57.90
2021,01,05,16,21,67.60
2021,01,05,16,22,61.20
2021,01,05,16,23,59.50
2021,01,05,16,24,48.30
2021,01,05,16,25,66.00
2021,01,05,16,26,70.80
2021,01,05,16,27,67.60
2021,01,05,16,28,69.20
2021,01,05,16,29,64.40
2021,01,05,16,30,67.60
2021,01,05,16,31,72.40
2021,01,05,16,32,66.00
2021,01,05,16,33,61.20
2021,01,05,16,34,66.00
2021,01,05,16,35,75.60
2021,01,05,16,36,66.00
2021,01,05,16,37,67.60
2021,01,05,16,38,74.00
2021,01,05,16,39,69.20
2021,01,05,16,40,75.60
2021,01,05,16,41,66.00
2021,01,05,16,42,70.80
2021,01,05,16,43,67.60
2021,01,05,16,44,74.00
2021,01,05,16,45,57.90
2021,01,05,16,46,66.00
2021,01,05,16,47,64.40
2021,01,05,16,48,64.40
2021,01,05,16,49,69.20
2021,01,05,16,50,62.70
2021,01,05,16,51,62.70
2021,01,05,16,52,62.70
2021,01,05,16,53,67.60
2021,01,05,16,54,64.40
2021,01,05,16,55,69.20
2021,01,05,16,56,70.80
2021,01,05,16,57,67.60
2021,01,05,16,58,64.40
2021,01,05,16,59,57.90
2021,01,05,17,00,70.80
2021,01,05,17,01,67.60
2021,01,05,17,02,72.40
2021,01,05,17,03,66.00
2021,01,05,17,04,67.60
2021,01,05,17,05,66.00
2021,01,05,17,06,54.70
2021,01,05,17,07,66.00
2021,01,05,17,08,69.20
2021,01,05,17,09,72.40
2021,01,05,17,10,64.40
2021,01,05,17,11,69.20
2021,01,05,17,12,64.40
2021,01,05,17,13,69.20
2021,01,05,17,14,66.00
2021,01,05,17,15,72.40
2021,01,05,17,16,72.40
2021,01,05,17,17,61.20
2021,01,05,17,18,64.40
2021,01,05,17,19,66.00
2021,01,05,17,20,69.20
2021,01,05,17,21,67.60
2021,01,05,17,22,69.20
2021,01,05,17,23,62.70
2021,01,05,17,24,72.40
2021,01,05,17,25,66.00
2021,01,05,17,26,66.00
2021,01,05,17,27,54.70
2021,01,05,17,28,62.70
2021,01,05,17,29,66.00
2021,01,05,17,30,64.40
2021,01,05,17,31,67.60
2021,01,05,17,32,66.00
2021,01,05,17,33,62.70
2021,01,05,17,34,61.20
2021,01,05,17,35,62.70
2021,01,05,17,36,54.70
2021,01,05,17,37,61.20
2021,01,05,17,38,56.30
2021,01,05,17,39,66.00
2021,01,05,17,40,69.20
2021,01,05,17,41,64.40
2021,01,05,17,42,64.40
2021,01,05,17,43,70.80
2021,01,05,17,44,64.40
2021,01,05,17,45,59.50
2021,01,05,17,46,67.60
2021,01,05,17,47,64.40
2021,01,05,17,48,66.00
2021,01,05,17,49,66.00
2021,01,05,17,50,61.20
2021,01,05,17,51,61.20
2021,01,05,17,52,56.30
2021,01,05,17,53,59.50
2021,01,05,17,54,56.30
2021,01,05,17,55,56.30
2021,01,05,17,56,64.40
2021,01,05,17,57,53.10
2021,01,05,17,58,62.70
2021,01,05,17,59,61.20
2021,01,05,18,00,61.20
2021,01,05,18,01,57.90
2021,01,05,18,02,56.30
2021,01,05,18,03,54.70
2021,01,05,18,04,56.30
2021,01,05,18,05,51.50
2021,01,05,18,06,57.90
2021,01,05,18,07,51.50
2021,01,05,18,08,59.50
2021,01,05,18,09,57.90
2021,01,05,18,10,61.20
2021,01,05,18,11,56.30
2021,01,05,18,12,57.90
2021,01,05,18,13,57.90
2021,01,05,18,14,62.70
2021,01,05,18,15,59.50
2021,01,05,18,16,59.50
2021,01,05,18,17,62.70
2021,01,05,18,18,54.70
2021,01,05,18,19,57.90
2021,01,05,18,20,66.00
2021,01,05,18,21,64.40
2021,01,05,18,22,61.20
2021,01,05,18,23,59.50
2021,01,05,18,24,57.90
2021,01,05,18,25,57.90
2021,01,05,18,26,57.90
2021,01,05,18,27,70.80
2021,01,05,18,28,66.00
2021,01,05,18,29,64.40
2021,01,05,18,30,66.00
2021,01,05,18,31,66.00
2021,01,05,18,32,62.70
2021,01,05,18,33,64.40
2021,01,05,18,34,59.50
2021,01,05,18,35,59.50
2021,01,05,18,36,54.70
2021,01,05,18,37,62.70
2021,01,05,18,38,66.00
2021,01,05,18,39,59.50
2021,01,05,18,40,54.70
2021,01,05,18,41,56.30
2021,01,05,18,42,57.90
2021,01,05,18,43,57.90
2021,01,05,18,44,59.50
2021,01,05,18,45,57.90
2021,01,05,18,46,59.50
2021,01,05,18,47,56.30
2021,01,05,18,48,57.90
2021,01,05,18,49,66.00
2021,01,05,18,50,66.00
2021,01,05,18,51,62.70
2021,01,05,18,52,56.30
2021,01,05,18,53,66.00
2021,01,05,18,54,62.70
2021,01,05,18,55,61.20
2021,01,05,18,56,67.60
2021,01,05,18,57,61.20
2021,01,05,18,58,61.20
2021,01,05,18,59,57.90
2021,01,05,19,00,59.50
2021,01,05,19,01,49.90
2021,01,05,19,02,49.90
2021,01,05,19,03,51.50
2021,01,05,19,04,56.30
2021,01,05,19,05,54.70
2021,01,05,19,06,46.70
2021,01,05,19,07,53.10
2021,01,05,19,08,45.10
2021,01,05,19,09,51.50
2021,01,05,19,10,57.90
2021,01,05,19,11,48.30
2021,01,05,19,12,49.90
2021,01,05,19,13,49.90
2021,01,05,19,14,53.10
2021,01,05,19,15,61.20
2021,01,05,19,16,61.20
2021,01,05,19,17,56.30
2021,01,05,19,18,59.50
2021,01,05,19,19,48.30
2021,01,05,19,20,54.70
2021,01,05,19,21,56.30
2021,01,05,19,22,51.50
2021,01,05,19,23,46.70
2021,01,05,19,24,57.90
2021,01,05,19,25,51.50
2021,01,05,19,26,48.30
2021,01,05,19,27,62.70
2021,01,05,19,28,54.70
2021,01,05,19,29,57.90
2021,01,05,19,30,61.20
2021,01,05,19,31,59.50
2021,01,05,19,32,56.30
2021,01,05,19,33,59.50
2021,01,05,19,34,53.10
2021,01,05,19,35,56.30
2021,01,05,19,36,61.20
2021,01,05,19,37,51.50
2021,01,05,19,38,54.70
2021,01,05,19,39,51.50
2021,01,05,19,40,51.50
2021,01,05,19,41,57.90
2021,01,05,19,42,61.20
2021,01,05,19,43,64.40
2021,01,05,19,44,64.40
2021,01,05,19,45,59.50
2021,01,05,19,46,59.50
2021,01,05,19,47,56.30
2021,01,05,19,48,57.90
2021,01,05,19,49,56.30
2021,01,05,19,50,56.30
2021,01,05,19,51,53.10
2021,01,05,19,52,53.10
2021,01,05,19,53,53.10
2021,01,05,19,54,54.70
2021,01,05,19,55,57.90
2021,01,05,19,56,56.30
2021,01,05,19,57,53.10
2021,01,05,19,58,49.90
2021,01,05,19,59,45.10
2021,01,05,20,00,49.90
2021,01,05,20,01,48.30
2021,01,05,20,02,53.10
2021,01,05,20,03,46.70
2021,01,05,20,04,46.70
2021,01,05,20,05,48.30
2021,01,05,20,06,45.10
2021,01,05,20,07,43.50
2021,01,05,20,08,43.50
2021,01,05,20,09,43.50
2021,01,05,20,10,43.50
2021,01,05,20,11,53.10
2021,01,05,20,12,53.10
2021,01,05,20,13,41.80